Location: Burgerwiesen
(48.6500°N, 15.6167°E)
Time: 13:26:34
(UTC+00:00)

Cosmos 1741 Rocket - Visible Passes

Search period start: 06 August 2020 00:00
Search period end: 16 August 2020 00:00
Orbit: 761 x 783 km, 74.0° (Epoch: 06 August)

Date Brightness Start Highest point End Pass type
(mag) Time Alt. Az. Time Alt. Az. Time Alt. Az.
06 Aug 4.2 21:19:30 46° SE 21:20:26 52° ESE 21:25:34 10° NNE visible
06 Aug 5.7 22:59:48 16° W 23:02:53 28° NW 23:07:24 10° N visible
07 Aug 4.7 20:43:49 31° ESE 20:44:43 33° ESE 20:49:24 10° NE visible
07 Aug 5.1 22:24:08 24° WSW 22:26:46 40° WNW 22:31:46 10° NNE visible
08 Aug 5.3 20:08:05 20° ESE 20:09:05 21° E 20:12:58 10° NE visible
08 Aug 4.4 21:48:23 32° SW 21:50:45 61° WNW 21:56:01 10° NNE visible
08 Aug 6.6 23:31:33 10° WNW 23:34:04 13° NW 23:36:36 10° NNW visible
09 Aug 5.8 19:32:16 12° ESE 19:33:33 13° E 19:35:55 10° ENE visible
09 Aug 3.9 21:12:33 35° SSW 21:14:50 87° ESE 21:20:09 10° NNE visible
09 Aug 6.4 22:54:05 10° W 22:57:45 19° NW 23:01:26 10° N visible
10 Aug 4.1 20:36:36 30° S 20:39:00 56° ESE 20:44:11 10° NNE visible
10 Aug 5.9 22:17:07 10° WSW 22:21:30 26° NW 22:25:58 10° N visible
11 Aug 4.6 20:00:31 21° SSE 20:03:17 35° ESE 20:08:03 10° NE visible
11 Aug 5.3 21:40:48 11° SW 21:45:23 38° WNW 21:50:20 10° N visible
12 Aug 5.2 19:24:14 12° SE 19:27:38 23° E 19:31:40 10° NE visible
12 Aug 4.5 21:04:29 12° SW 21:09:22 58° WNW 21:14:36 10° NNE visible
12 Aug 6.8 22:50:25 10° WNW 22:52:44 13° NW 22:55:05 10° NNW visible
13 Aug 5.7 18:49:25 10° SE 18:52:05 14° E 18:54:46 10° ENE visible
13 Aug 4.0 20:28:09 10° SSW 20:33:25 88° WNW 20:38:45 10° NNE visible
13 Aug 6.6 22:12:51 10° W 22:16:23 18° NW 22:19:58 10° N visible
14 Aug 4.0 19:52:26 10° S 19:57:35 59° ESE 20:02:48 10° NNE visible
14 Aug 6.1 21:35:49 10° WSW 21:40:09 25° NW 21:44:31 10° N visible
15 Aug 4.5 19:17:02 10° S 19:21:50 37° ESE 19:26:41 10° NE visible
15 Aug 5.5 20:59:10 10° SW 21:04:00 36° WNW 21:08:54 10° N visible
